Hebron, NE

11:57 PM CST on December 05, 2019 (GMT -0600)
Hebron Municipal

Weather History for KHJH - September, 2019

Change the Weather History Date:

Monday, September 30, 2019

  Actual Average Record
Temperature  
Mean Temperature 83 °F -  
Max Temperature 92 °F 74 °F 95 °F (1979)
Min Temperature 74 °F 48 °F 27 °F (1984)
Cooling Degree Days 18    
Growing Degree Days 33 (Base 50)    
Moisture  
Dew Point 69 °F    
Average Humidity 68    
Maximum Humidity 85    
Minimum Humidity 44    
Precipitation  
Precipitation 0.00 in - - ()
Sea Level Pressure  
Sea Level Pressure 29.81 in    
Wind  
Wind Speed 18 mph (South)    
Max Wind Speed 26 mph    
Max Gust Speed 38 mph    
Visibility 10 miles    
Events      
Averages and records for this station are not official NWS values.
T = Trace of Precipitation, MM = Missing Value Source: NWS Daily Summary

Daily Weather History Graph

Daily Weather History Graph

Search for Another Location

Airport or City:

Astronomy

Sep. 30, 2019 Rise Set
Actual Time 7:25 AM CDT 7:14 PM CDT
Civil Twilight 6:58 AM CDT 7:41 PM CDT
Nautical Twilight 6:26 AM CDT 8:13 PM CDT
Astronomical Twilight 5:55 AM CDT 8:44 PM CDT
Moon 9:31 AM CDT (9/30) 8:51 PM CDT (9/30)
Length of Visible Light 12h 43m
Length of Day
11h 49m
Waxing Crescent, 6% of the Moon is Illuminated
Sep 30
Waxing Crescent
Oct 5
First Quarter
Oct 13
Full
Oct 21
Last Quarter
Oct 27
New

Hourly Weather History & Observations

Time (CDT) Temp. Heat Index Dew Point Humidity Pressure Visibility Wind Dir Wind Speed Gust Speed Precip Events Conditions
12:15 AM 77.2 °F - 72.0 °F 84% 29.83 in 10.0 mi South 18.4 mph 27.6 mph N/A   Mostly Cloudy
12:35 AM 77.2 °F - 72.1 °F 84% 29.83 in 10.0 mi South 17.3 mph 25.3 mph N/A   Mostly Cloudy
12:55 AM 77.0 °F - 72.0 °F 84% 29.83 in 10.0 mi South 15.0 mph 23.0 mph N/A   Mostly Cloudy
1:15 AM 76.6 °F - 71.8 °F 85% 29.83 in 10.0 mi South 18.4 mph 23.0 mph N/A   Mostly Cloudy
1:35 AM 76.6 °F - 71.6 °F 84% 29.83 in 10.0 mi South 17.3 mph 26.5 mph N/A   Scattered Clouds
1:55 AM 76.5 °F - 71.6 °F 85% 29.83 in 10.0 mi South 18.4 mph 27.6 mph N/A   Scattered Clouds
2:15 AM 76.5 °F - 71.4 °F 84% 29.83 in 10.0 mi South 15.0 mph 23.0 mph N/A   Clear
2:35 AM 76.3 °F - 71.1 °F 84% 29.83 in 10.0 mi South 16.1 mph 26.5 mph N/A   Clear
2:55 AM 76.5 °F - 70.9 °F 83% 29.82 in 10.0 mi South 17.3 mph 25.3 mph N/A   Clear
3:15 AM 76.3 °F - 70.7 °F 83% 29.82 in 10.0 mi South 19.6 mph 28.8 mph N/A   Clear
3:35 AM 76.1 °F - 70.7 °F 83% 29.82 in 10.0 mi South 19.6 mph 26.5 mph N/A   Clear
3:55 AM 76.1 °F - 70.3 °F 82% 29.82 in 10.0 mi South 19.6 mph 31.1 mph N/A   Clear
4:15 AM 75.7 °F - 70.2 °F 83% 29.82 in 10.0 mi South 18.4 mph 27.6 mph N/A   Clear
4:35 AM 75.7 °F - 70.0 °F 82% 29.81 in 10.0 mi South 17.3 mph 27.6 mph N/A   Clear
4:55 AM 75.2 °F - 69.8 °F 83% 29.82 in 10.0 mi South 18.4 mph 25.3 mph N/A   Clear
5:15 AM 75.2 °F - 69.8 °F 83% 29.82 in 10.0 mi South 17.3 mph 25.3 mph N/A   Clear
5:35 AM 75.2 °F - 69.8 °F 83% 29.82 in 10.0 mi South 13.8 mph 27.6 mph N/A   Clear
5:55 AM 75.4 °F - 69.4 °F 82% 29.81 in 10.0 mi South 13.8 mph 23.0 mph N/A   Clear
6:15 AM 75.4 °F - 69.3 °F 81% 29.81 in 10.0 mi South 17.3 mph 24.2 mph N/A   Clear
6:35 AM 75.2 °F - 69.1 °F 81% 29.81 in 10.0 mi South 20.7 mph 29.9 mph N/A   Clear
6:55 AM 75.2 °F - 68.9 °F 81% 29.81 in 10.0 mi South 16.1 mph 23.0 mph N/A   Clear
7:15 AM 75.2 °F - 68.9 °F 81% 29.81 in 10.0 mi South 15.0 mph 26.5 mph N/A   Clear
7:35 AM 74.8 °F - 68.4 °F 80% 29.81 in 10.0 mi South 19.6 mph 27.6 mph N/A   Clear
7:55 AM 75.0 °F - 68.2 °F 79% 29.81 in 10.0 mi South 17.3 mph 25.3 mph N/A   Clear
8:10 AM 75.2 °F - 68.2 °F 79% 29.82 in 10.0 mi South 18.4 mph 28.8 mph N/A   Clear
8:35 AM 76.1 °F - 68.0 °F 76% 29.82 in 10.0 mi South 18.4 mph 28.8 mph N/A   Clear
8:55 AM 75.9 °F - 68.0 °F 76% 29.82 in 10.0 mi South 20.7 mph 28.8 mph N/A   Clear
9:15 AM 77.0 °F - 67.8 °F 73% 29.81 in 10.0 mi South 18.4 mph 27.6 mph N/A   Clear
9:35 AM 78.8 °F - 67.6 °F 68% 29.82 in 10.0 mi SSW 20.7 mph 32.2 mph N/A   Clear
9:55 AM 79.7 °F - 67.6 °F 66% 29.83 in 10.0 mi SSW 20.7 mph 38.0 mph N/A   Clear
10:15 AM 80.6 °F 83.1 °F 67.5 °F 64% 29.82 in 10.0 mi SSW 23.0 mph 33.4 mph N/A   Clear
10:35 AM 81.9 °F 84.6 °F 67.6 °F 62% 29.82 in 10.0 mi SSW 25.3 mph 33.4 mph N/A   Clear
10:55 AM 82.8 °F 85.5 °F 67.6 °F 60% 29.82 in 10.0 mi SSW 26.5 mph 34.5 mph N/A   Clear
11:15 AM 83.7 °F 86.7 °F 67.8 °F 59% 29.81 in 10.0 mi SSW 19.6 mph 33.4 mph N/A   Clear
11:35 AM 85.5 °F 88.5 °F 67.5 °F 55% 29.81 in 10.0 mi SSW 21.9 mph 28.8 mph N/A   Clear
11:55 AM 86.2 °F 89.1 °F 67.1 °F 53% 29.81 in 10.0 mi SSW 25.3 mph 33.4 mph N/A   Clear
12:15 PM 86.9 °F 89.6 °F 66.9 °F 51% 29.82 in 10.0 mi SSW 15.0 mph 28.8 mph N/A   Clear
12:35 PM 87.1 °F 89.9 °F 67.1 °F 51% 29.82 in 10.0 mi SSW 23.0 mph 33.4 mph N/A   Clear
12:55 PM 86.9 °F 89.9 °F 67.1 °F 52% 29.82 in 10.0 mi South 25.3 mph 35.7 mph N/A   Clear
1:15 PM 88.0 °F 91.4 °F 68.0 °F 51% 29.81 in 10.0 mi SSW 23.0 mph 29.9 mph N/A   Clear
1:35 PM 88.7 °F 92.6 °F 68.4 °F 51% 29.81 in 10.0 mi SSW 17.3 mph 26.5 mph N/A   Clear
1:55 PM 89.6 °F 93.0 °F 67.6 °F 48% 29.80 in 10.0 mi SSW 17.3 mph 31.1 mph N/A   Clear
2:15 PM 90.1 °F 94.4 °F 68.5 °F 49% 29.79 in 10.0 mi South 20.7 mph 32.2 mph N/A   Clear
2:35 PM 90.9 °F 94.8 °F 68.2 °F 47% 29.78 in 10.0 mi South 19.6 mph 26.5 mph N/A   Clear
2:55 PM 91.2 °F 95.0 °F 68.0 °F 46% 29.78 in 10.0 mi South 21.9 mph 28.8 mph N/A   Clear
3:15 PM 91.6 °F 95.7 °F 68.0 °F 46% 29.78 in 10.0 mi South 23.0 mph 32.2 mph N/A   Clear
3:35 PM 92.3 °F 96.1 °F 67.8 °F 44% 29.77 in 10.0 mi SSW 19.6 mph 25.3 mph N/A   Clear
3:55 PM 91.8 °F 96.0 °F 68.0 °F 46% 29.78 in 10.0 mi South 18.4 mph 26.5 mph N/A   Clear
4:15 PM 90.5 °F 94.6 °F 68.2 °F 48% 29.78 in 10.0 mi South 18.4 mph 33.4 mph N/A   Clear
4:35 PM 89.8 °F 94.2 °F 68.7 °F 50% 29.78 in 10.0 mi South 23.0 mph 31.1 mph N/A   Clear
4:55 PM 89.2 °F 93.2 °F 68.2 °F 50% 29.78 in 10.0 mi South 19.6 mph 27.6 mph N/A   Clear
5:15 PM 89.6 °F 93.0 °F 67.5 °F 48% 29.78 in 10.0 mi SSW 23.0 mph 31.1 mph N/A   Clear
5:35 PM 88.9 °F 93.0 °F 68.9 °F 51% 29.78 in 10.0 mi South 20.7 mph 28.8 mph N/A   Clear
5:55 PM 86.9 °F 90.6 °F 68.4 °F 54% 29.78 in 10.0 mi South 18.4 mph 33.4 mph N/A   Clear
6:15 PM 85.1 °F 88.2 °F 68.0 °F 56% 29.78 in 10.0 mi South 17.3 mph 28.8 mph N/A   Clear
6:35 PM 84.7 °F 88.2 °F 68.5 °F 58% 29.78 in 10.0 mi South 12.7 mph 23.0 mph N/A   Clear
6:55 PM 84.4 °F 87.6 °F 68.2 °F 58% 29.79 in 10.0 mi South 15.0 mph 20.7 mph N/A   Clear
7:15 PM 83.7 °F 86.7 °F 67.8 °F 59% 29.79 in 10.0 mi South 16.1 mph 28.8 mph N/A   Clear
7:35 PM 82.4 °F 85.4 °F 68.0 °F 62% 29.80 in 10.0 mi South 13.8 mph 19.6 mph N/A   Clear
7:55 PM 81.7 °F 84.5 °F 68.2 °F 63% 29.81 in 10.0 mi South 12.7 mph 17.3 mph N/A   Clear
8:15 PM 80.6 °F 83.5 °F 68.5 °F 67% 29.81 in 10.0 mi South 9.2 mph - N/A   Clear
8:35 PM 79.9 °F - 68.9 °F 69% 29.81 in 10.0 mi SSE 8.1 mph - N/A   Clear
8:55 PM 79.3 °F - 68.9 °F 70% 29.82 in 10.0 mi SSE 5.8 mph - N/A   Clear
9:15 PM 79.2 °F - 69.3 °F 72% 29.82 in 10.0 mi SSE 6.9 mph - N/A   Clear
9:35 PM 79.0 °F - 69.3 °F 72% 29.82 in 10.0 mi South 9.2 mph - N/A   Clear
9:55 PM 79.0 °F - 69.4 °F 72% 29.82 in 10.0 mi SSE 9.2 mph - N/A   Clear
10:15 PM 78.8 °F - 69.6 °F 73% 29.82 in 10.0 mi South 10.4 mph - N/A   Clear
10:35 PM 79.2 °F - 69.6 °F 72% 29.82 in 10.0 mi South 11.5 mph - N/A   Clear
10:55 PM 78.8 °F - 69.6 °F 73% 29.82 in 10.0 mi South 11.5 mph - N/A   Clear
11:15 PM 79.0 °F - 69.8 °F 73% 29.82 in 10.0 mi South 9.2 mph - N/A   Clear
11:35 PM 78.8 °F - 69.8 °F 74% 29.83 in 10.0 mi South 9.2 mph 16.1 mph N/A   Clear
11:55 PM 78.3 °F - 69.8 °F 75% 29.83 in 10.0 mi South 9.2 mph - N/A   Clear